Wind_Speed
9 9 7 5 4 5 6 8 9 11 12 13 15 15 15 15 13 12 13 16 18 22 21 19 9 6 6 13 12 16 9 8 7 8 8 10 8 5 5 5 6 4 6 16 13 21 20
9 9 8 4 3 4 5 7 9 11 13 14 15 15 14 14 11 9 9 10 14 15 14 15 9 6 5 10 14 15 7 9 9 8 10 7 7 12 9 5 5 10 16 10 14 19 10
10 10 9 4 2 3 5 7 9 11 13 14 14 14 14 13 10 6 8 10 14 16 11 6 3 10 24 13 12 12 5 8 12 12 14 12 10 4 6 4 5 8 5 8 16 11 6
9 9 9 5 3 4 5 6 8 10 12 13 13 13 12 11 9 5 5 6 5 2 3 4 11 8 9 12 10 7 9 11 14 13 15 13 12 18 7 6 7 5 5 3 4 12 5
8 9 8 4 2 3 4 6 8 10 12 13 13 12 10 7 6 5 4 2 3 4 3 3 1 4 5 7 13 15 12 21 20 19 18 14 12 10 6 4 4 8 2 4 5 7 5
7 8 8 6 3 3 4 6 8 10 12 13 13 11 9 4 3 4 6 4 4 3 1 3 6 6 7 10 17 11 14 17 18 16 11 10 11 5 6 4 3 3 2 1 3 2 6
7 7 6 7 4 4 5 6 8 11 12 14 13 13 9 2 2 4 5 8 1 4 24 13 11 12 12 7 17 16 15 14 10 12 5 12 9 7 4 4 4 5 4 4 4 1 1
8 8 8 6 5 4 4 6 8 10 13 13 12 11 9 1 2 8 10 3 0 9 13 10 14 15 15 9 8 20 10 6 7 6 4 7 7 4 6 5 5 3 3 3 5 2 3
10 9 8 7 5 5 5 5 7 9 12 13 13 12 9 3 1 2 15 12 6 11 6 2 5 5 7 13 11 18 11 11 11 7 5 5 5 7 5 4 5 2 4 3 5 3 2
11 10 9 7 6 5 5 5 6 8 11 13 13 11 8 5 1 0 5 11 17 4 4 1 2 5 3 3 6 12 9 4 5 7 6 6 1 5 4 4 1 4 5 3 5 3 1
14 11 10 10 7 6 5 5 6 8 10 12 12 10 7 6 3 0 5 17 11 2 3 2 3 4 8 6 1 10 10 9 5 3 4 3 3 3 3 2 1 2 3 4 2 2 1
15 13 12 10 10 7 6 5 5 7 9 11 10 8 7 5 3 2 11 17 5 4 6 2 1 2 4 8 4 4 4 9 5 6 7 3 2 3 0 1 0 5 2 2 3 2 1
17 16 13 11 10 9 9 6 5 5 11 10 9 5 5 5 1 5 16 11 4 3 4 4 2 3 4 4 5 7 5 5 2 5 1 1 1 1 3 2 2 5 3 2 3 2 3
20 18 15 12 12 10 10 8 6 6 7 13 8 2 2 4 3 11 20 3 2 3 4 2 4 4 3 1 2 3 2 2 3 3 3 5 3 1 3 2 2 2 2 4 4 2 3
23 20 18 15 14 12 12 12 9 6 6 10 8 2 2 1 6 15 5 1 5 4 6 8 3 4 3 2 4 3 1 3 2 2 5 4 2 1 4 2 1 1 3 2 5 1 2
24 24 21 19 18 14 14 14 12 9 4 7 4 2 4 1 9 13 3 5 2 2 6 3 7 4 8 6 5 4 5 3 3 1 3 4 3 1 4 1 10 4 3 3 2 0 5
27 26 28 24 22 16 15 14 13 8 4 6 2 2 3 8 11 4 3 4 2 4 4 4 5 5 4 6 7 5 5 2 3 2 4 3 3 2 3 3 3 2 1 5 4 2 4
26 31 28 27 24 17 16 15 13 7 7 5 4 1 5 11 3 1 3 3 4 4 3 2 4 3 6 6 4 5 8 2 10 8 5 2 4 3 1 1 1 3 5 4 4 4 1
24 25 27 27 26 22 19 18 17 11 8 7 3 4 7 14 4 3 2 2 5 5 4 5 3 2 2 6 3 3 5 3 9 6 6 6 0 2 3 4 1 3 4 4 5 3 6
17 24 26 26 27 23 22 21 20 16 11 11 5 1 4 12 5 4 5 5 5 4 4 4 4 5 4 2 2 5 3 3 7 5 6 5 2 6 6 4 4 5 5 5 5 3 4
24 27 29 28 26 25 23 22 21 19 14 13 7 4 4 3 4 3 5 6 6 7 3 8 2 6 7 4 3 5 4 3 2 6 4 4 5 3 1 1 1 4 7 13 10 6 8
19 25 27 30 29 26 27 25 23 23 20 15 8 4 3 2 4 5 6 6 9 5 9 6 5 8 6 7 7 9 8 5 6 3 3 2 2 2 3 1 1 5 7 10 14 5 10
19 20 22 33 33 31 30 24 22 23 19 11 14 10 3 6 4 3 5 6 9 11 5 1 8 6 5 4 7 8 8 9 10 8 5 4 6 3 5 3 3 8 14 19 7 5 9
17 19 24 26 36 34 32 25 23 24 19 15 13 10 7 3 6 5 3 3 5 7 5 3 10 6 10 25 26 20 20 17 13 10 4 6 5 3 3 3 1 6 2 2 13 5 13
16 19 20 24 34 35 29 25 23 21 21 24 20 14 7 3 6 2 6 5 10 6 4 4 1 3 32 9 4 4 3 4 2 5 4 3 5 2 4 4 6 4 6 8 9 10 18
20 18 23 27 33 34 29 24 22 22 23 23 17 18 11 2 6 4 6 9 4 3 3 3 5 33 7 2 3 5 6 4 3 1 3 3 4 3 3 4 7 5 2 8 6 7 15
16 24 26 28 35 34 30 26 21 21 23 19 12 21 17 7 6 10 4 6 8 5 3 7 12 5 4 2 2 4 4 0 5 7 6 3 1 6 4 4 8 3 9 9 6 7 6
19 20 29 30 38 38 33 26 21 20 23 17 18 19 15 10 8 11 8 6 8 9 5 13 7 5 3 4 4 4 3 5 2 3 6 8 9 4 3 2 10 13 6 8 2 9 5
18 16 21 31 42 38 30 26 17 21 19 17 13 12 17 11 3 7 9 10 12 12 9 25 1 6 12 3 2 3 2 2 3 3 1 4 5 5 9 5 1 25 4 8 9 8 9
Wind_Direction
5 10 18 37 63 58 43 31 28 25 22 16 14 12 9 10 15 35 47 56 67 98 118 140 104 103 97 72 28 10 30 45 68 99 105 123 120 104 113 109 97 84 89 57 79 71 77
359 4 11 23 59 52 36 25 19 20 18 16 15 14 10 12 20 41 53 73 91 105 101 99 79 90 103 68 17 1 41 67 79 106 106 100 120 109 86 83 79 105 89 81 63 83 79
356 358 359 11 30 32 23 18 15 14 15 14 15 14 9 11 22 48 73 90 103 112 112 52 70 62 67 55 17 357 33 90 94 101 112 103 113 125 110 83 77 128 93 50 18 18 71
353 355 356 359 1 7 8 7 9 11 10 11 9 13 14 11 24 64 103 120 120 111 96 70 67 89 79 54 32 48 71 106 109 106 105 104 113 90 67 102 33 39 58 35 26 15 25
348 352 353 345 337 338 348 355 0 5 6 5 6 9 14 22 35 85 117 100 129 126 60 14 111 106 74 44 41 44 105 112 113 105 102 116 100 59 60 74 49 16 87 14 342 40 9
335 347 348 339 309 315 337 348 352 356 2 0 2 6 11 29 74 122 140 113 106 140 30 31 60 76 58 26 33 57 122 123 122 115 92 60 59 61 31 57 165 144 123 283 254 12 32
317 329 344 336 309 307 327 337 343 352 1 360 0 357 9 63 125 155 164 139 28 49 67 65 62 75 46 67 46 55 123 123 99 70 74 32 76 94 89 56 125 125 133 211 268 131 347
305 317 325 334 311 294 307 328 342 349 354 358 0 357 2 65 143 191 188 162 96 141 75 71 84 69 47 37 62 54 103 79 63 86 58 53 103 174 99 78 123 135 126 230 283 243 277
293 298 314 321 304 279 296 320 339 348 349 354 357 360 3 4 202 190 209 223 164 133 94 88 43 16 3 38 43 14 47 80 68 64 60 110 144 163 89 52 101 122 146 205 219 306 67
281 289 298 300 296 273 286 310 330 343 347 351 354 358 4 359 307 92 172 189 166 122 88 179 332 9 10 65 56 28 47 81 63 117 96 90 99 133 120 89 243 157 187 267 288 26 304
276 286 293 301 295 272 278 305 329 339 343 345 354 354 6 6 331 209 160 162 159 72 347 41 50 71 59 75 120 18 38 74 99 120 136 193 135 114 92 17 165 207 316 289 277 195 87
268 276 281 290 288 274 267 281 311 333 336 340 349 352 2 4 6 131 158 158 140 50 250 151 80 15 60 32 39 359 60 76 106 72 61 105 91 61 357 14 104 316 6 75 65 104 42
258 264 272 276 279 279 264 267 295 336 327 333 333 357 10 0 44 139 155 154 45 179 34 168 150 85 75 31 27 30 23 21 122 110 138 46 57 67 31 93 74 27 54 2 354 355 246
258 256 261 264 266 268 261 256 265 303 331 318 315 30 17 1 130 144 149 67 207 117 192 136 108 84 111 105 46 19 50 107 57 94 115 153 246 177 334 73 149 19 101 140 242 251 283
248 253 258 259 256 264 261 261 263 265 317 312 311 350 265 335 171 166 158 111 225 177 153 145 73 136 173 169 138 113 50 197 215 147 145 139 141 87 63 80 61 118 70 161 102 277 294
252 253 255 258 254 244 256 257 257 268 280 295 309 313 250 189 166 167 97 251 208 150 124 124 177 168 179 190 158 173 184 197 180 99 175 204 90 262 159 23 43 106 139 117 60 81 274
258 251 253 255 259 240 243 249 261 250 242 263 321 241 185 158 155 171 205 227 167 187 151 163 175 144 178 172 170 185 184 331 194 99 79 124 80 222 107 19 143 129 65 52 109 133 195
250 260 252 251 259 228 237 245 245 234 239 252 154 235 187 173 143 191 192 175 155 161 150 107 112 118 168 164 150 196 196 228 169 152 144 178 139 153 130 114 26 93 177 148 140 229 159
249 258 255 250 257 251 229 241 252 230 224 202 173 193 186 184 206 195 172 196 195 161 186 158 147 150 130 165 126 165 149 100 157 152 163 184 264 58 338 358 354 219 186 113 103 80 203
258 256 253 252 256 249 244 236 246 237 222 193 166 208 185 195 236 152 153 209 201 198 155 146 137 115 115 127 40 166 139 158 158 172 152 131 130 179 194 190 126 180 182 179 136 142 185
257 259 262 252 255 249 255 243 239 240 213 186 177 239 194 196 230 188 176 152 158 188 203 176 185 206 162 128 103 178 148 125 114 163 101 128 202 165 295 278 107 205 184 185 203 179 195
253 261 270 254 252 254 257 244 234 240 197 187 164 195 191 160 134 139 201 213 191 169 162 215 219 166 167 159 187 184 137 186 187 121 130 11 167 102 314 327 195 269 226 212 215 214 261
250 251 263 267 262 257 258 239 236 238 210 191 201 217 202 193 151 151 213 213 199 142 214 131 173 123 160 185 141 115 130 125 139 146 146 135 138 104 259 343 345 290 227 200 188 200 183
261 249 247 260 269 261 262 243 235 235 221 212 184 193 187 248 190 199 191 145 176 192 146 148 158 125 140 124 103 90 81 84 86 54 102 135 106 83 197 10 311 243 194 198 217 222 216
273 244 246 258 251 251 260 248 237 238 213 207 206 189 175 248 195 170 166 121 106 101 86 105 93 188 145 127 84 72 13 28 50 37 29 27 122 114 151 207 294 288 194 168 173 258 206
271 255 245 250 253 242 240 240 236 224 213 215 198 208 204 228 226 177 151 172 153 144 94 82 88 146 146 110 131 160 199 184 224 163 41 70 68 126 138 191 225 247 215 166 137 294 217
295 249 245 243 239 227 227 235 235 231 211 200 209 213 220 234 205 177 173 175 171 138 105 128 149 190 178 128 152 168 219 134 185 181 169 148 158 212 195 240 284 217 161 150 103 242 313
297 275 239 237 235 222 226 226 239 222 207 198 205 226 203 235 222 206 198 164 163 177 154 147 121 206 148 196 180 193 173 207 154 151 176 167 162 190 112 174 268 156 125 176 286 331 326
290 280 238 230 221 216 220 224 233 198 198 197 209 200 216 236 174 220 211 219 209 190 168 171 213 153 168 153 200 108 162 143 175 238 310 221 197 177 193 211 5 188 71 215 352 11 27
Height
1528 1527 1526 1525 1524 1523 1522 1522 1521 1519 1518 1516 1515 1513 1510 1507 1505 1503 1502 1500 1497 1496 1499 1501 1501 1500 1500 1501 1509 1508 1506 1506 1506 1506 1508 1508 1511 1513 1518 1520 1522 1526 1530 1535 1538 1537 1542
1529 1528 1527 1525 1524 1524 1523 1522 1521 1519 1518 1517 1515 1513 1511 1509 1507 1506 1505 1504 1503 1502 1503 1504 1502 1501 1501 1506 1511 1508 1507 1507 1507 1508 1509 1510 1512 1514 1518 1522 1524 1529 1532 1538 1541 1543 1546
1529 1529 1528 1526 1525 1524 1523 1522 1521 1520 1518 1517 1515 1514 1513 1511 1509 1508 1507 1507 1506 1506 1506 1505 1505 1504 1503 1513 1511 1507 1506 1507 1508 1509 1510 1512 1513 1515 1520 1524 1527 1530 1535 1537 1541 1543 1548
1529 1528 1528 1527 1526 1525 1524 1523 1522 1520 1519 1517 1514 1512 1511 1511 1511 1510 1510 1509 1509 1509 1507 1506 1506 1505 1509 1512 1511 1508 1507 1507 1509 1510 1511 1514 1516 1516 1521 1527 1530 1536 1539 1541 1546 1544 1546
1528 1528 1528 1527 1526 1526 1524 1523 1522 1521 1519 1517 1515 1513 1511 1509 1510 1511 1513 1512 1511 1510 1509 1507 1507 1506 1513 1513 1510 1510 1509 1510 1511 1512 1513 1516 1517 1523 1527 1532 1541 1547 1547 1549 1547 1549 1548
1528 1527 1527 1526 1526 1525 1524 1523 1522 1520 1519 1518 1515 1513 1510 1508 1508 1510 1511 1513 1513 1513 1511 1509 1508 1511 1515 1516 1513 1512 1511 1512 1513 1514 1516 1519 1525 1534 1537 1539 1542 1553 1554 1555 1553 1552 1552
1527 1526 1525 1525 1525 1525 1524 1523 1522 1520 1519 1518 1515 1514 1512 1509 1508 1509 1511 1513 1516 1517 1513 1519 1519 1518 1517 1517 1515 1512 1512 1513 1514 1516 1526 1530 1537 1550 1551 1548 1554 1559 1563 1559 1555 1553 1554
1526 1525 1524 1523 1524 1524 1523 1522 1521 1520 1518 1517 1515 1513 1511 1510 1509 1508 1510 1512 1513 1518 1522 1524 1522 1521 1520 1517 1515 1513 1513 1515 1517 1529 1531 1539 1550 1552 1551 1551 1553 1557 1566 1563 1554 1551 1551
1524 1524 1522 1522 1522 1522 1522 1521 1520 1519 1518 1516 1514 1513 1511 1510 1509 1509 1509 1512 1514 1514 1520 1527 1525 1524 1523 1521 1521 1520 1519 1522 1527 1534 1537 1542 1549 1550 1550 1554 1552 1557 1561 1558 1558 1553 1553
1522 1521 1521 1520 1520 1520 1521 1520 1519 1518 1517 1515 1513 1512 1510 1510 1512 1508 1508 1510 1512 1514 1522 1527 1527 1527 1526 1524 1526 1525 1524 1526 1532 1542 1542 1548 1550 1550 1553 1552 1552 1550 1554 1553 1553 1555 1552
1520 1519 1520 1519 1518 1518 1519 1519 1518 1517 1516 1514 1512 1511 1510 1508 1508 1508 1510 1511 1513 1516 1528 1529 1527 1528 1528 1529 1531 1529 1528 1527 1533 1537 1542 1552 1550 1550 1551 1551 1551 1551 1550 1552 1551 1554 1558
1516 1517 1517 1517 1516 1516 1517 1516 1516 1515 1514 1513 1511 1509 1509 1508 1508 1507 1508 1512 1516 1521 1529 1527 1527 1527 1529 1530 1532 1532 1530 1530 1534 1537 1541 1548 1548 1549 1550 1550 1550 1551 1551 1551 1557 1559 1569
1512 1513 1514 1514 1514 1514 1514 1514 1514 1513 1513 1511 1510 1507 1507 1508 1508 1507 1508 1515 1522 1522 1524 1526 1527 1528 1531 1534 1534 1535 1538 1539 1539 1546 1549 1549 1551 1550 1549 1550 1551 1552 1557 1557 1553 1555 1548
1507 1509 1509 1510 1511 1511 1511 1512 1512 1512 1510 1511 1510 1507 1507 1508 1508 1509 1511 1516 1514 1512 1520 1524 1526 1530 1534 1535 1540 1540 1542 1544 1544 1544 1553 1553 1557 1551 1551 1551 1554 1553 1555 1567 1577 1565 1558
1502 1504 1506 1505 1506 1507 1508 1509 1509 1509 1508 1508 1508 1506 1507 1506 1508 1510 1513 1519 1504 1508 1514 1519 1526 1529 1535 1536 1538 1541 1546 1545 1544 1544 1550 1558 1552 1552 1552 1552 1553 1554 1560 1567 1588 1580 1571
1496 1499 1500 1501 1502 1503 1504 1505 1506 1505 1505 1506 1506 1506 1506 1506 1507 1511 1513 1507 1509 1510 1513 1516 1513 1522 1532 1535 1536 1539 1543 1541 1541 1542 1544 1552 1562 1551 1552 1552 1553 1554 1564 1569 1576 1591 1575
1489 1492 1495 1496 1496 1498 1500 1501 1503 1502 1502 1504 1502 1505 1505 1505 1507 1510 1514 1510 1510 1510 1511 1514 1517 1524 1527 1531 1535 1539 1537 1541 1540 1543 1544 1549 1555 1557 1552 1559 1557 1560 1570 1579 1579 1586 1583
1482 1485 1488 1490 1491 1493 1495 1496 1497 1498 1500 1501 1500 1504 1503 1504 1508 1508 1509 1508 1509 1510 1511 1512 1514 1519 1523 1529 1533 1535 1536 1536 1536 1540 1546 1548 1561 1562 1559 1564 1563 1564 1570 1574 1571 1583 1597
1475 1477 1481 1484 1486 1486 1489 1491 1493 1494 1496 1498 1497 1500 1502 1503 1502 1505 1507 1507 1507 1507 1508 1510 1513 1514 1520 1524 1534 1530 1532 1535 1535 1538 1542 1545 1558 1571 1559 1568 1563 1564 1570 1577 1585 1594 1592
1472 1473 1474 1478 1480 1481 1483 1485 1487 1489 1491 1495 1496 1499 1499 1499 1498 1496 1502 1504 1504 1504 1505 1507 1510 1513 1519 1524 1527 1534 1534 1535 1536 1537 1539 1541 1565 1554 1547 1546 1556 1562 1561 1566 1569 1590 1585
1467 1469 1471 1471 1475 1475 1477 1480 1481 1484 1487 1490 1492 1494 1491 1494 1495 1496 1496 1497 1500 1503 1503 1505 1509 1506 1512 1529 1526 1526 1530 1535 1537 1537 1539 1542 1552 1556 1561 1561 1557 1556 1552 1558 1559 1561 1554
1462 1465 1466 1467 1468 1470 1470 1473 1475 1477 1479 1483 1487 1490 1490 1491 1491 1495 1496 1495 1492 1496 1498 1500 1500 1500 1507 1512 1509 1520 1524 1530 1529 1537 1541 1545 1552 1561 1563 1560 1559 1560 1554 1552 1550 1556 1556
1454 1457 1461 1462 1463 1465 1464 1466 1469 1471 1475 1475 1480 1486 1488 1487 1489 1494 1489 1484 1484 1489 1494 1493 1494 1500 1506 1506 1507 1511 1515 1517 1521 1528 1539 1547 1554 1566 1565 1567 1568 1551 1530 1532 1536 1538 1534
1447 1450 1455 1455 1457 1459 1458 1460 1463 1465 1468 1472 1473 1481 1484 1483 1483 1483 1483 1484 1486 1488 1491 1494 1495 1496 1505 1505 1510 1515 1519 1523 1526 1531 1533 1544 1552 1571 1575 1577 1563 1511 1524 1524 1517 1522 1523
1442 1444 1447 1450 1450 1452 1454 1455 1456 1461 1464 1468 1469 1474 1477 1481 1477 1478 1481 1484 1489 1490 1493 1495 1496 1496 1500 1504 1514 1524 1527 1528 1533 1536 1537 1536 1544 1569 1564 1575 1531 1506 1518 1519 1518 1503 1502
1438 1437 1441 1443 1445 1448 1450 1451 1452 1456 1459 1464 1464 1471 1472 1476 1471 1473 1479 1482 1486 1491 1495 1498 1498 1501 1502 1504 1508 1519 1515 1515 1534 1536 1539 1539 1540 1541 1568 1555 1537 1498 1506 1506 1507 1510 1481
1429 1432 1435 1436 1439 1442 1445 1447 1450 1453 1456 1458 1460 1466 1470 1470 1467 1470 1473 1476 1479 1484 1490 1496 1501 1503 1502 1502 1506 1513 1511 1520 1516 1520 1533 1536 1542 1538 1545 1543 1520 1499 1503 1505 1520 1499 1480
1424 1424 1427 1430 1432 1434 1438 1442 1445 1449 1450 1453 1456 1461 1465 1466 1464 1466 1468 1470 1474 1478 1481 1489 1498 1499 1501 1501 1496 1497 1506 1511 1512 1511 1516 1516 1526 1535 1545 1545 1515 1498 1506 1501 1494 1484 1482
1418 1417 1419 1423 1425 1428 1431 1436 1441 1443 1446 1450 1454 1457 1461 1465 1462 1463 1465 1468 1470 1472 1474 1479 1477 1477 1482 1487 1490 1495 1499 1512 1504 1499 1509 1506 1497 1504 1505 1497 1494 1495 1493 1491 1492 1490 1487